GW5048 Weather Reports


time (UTC)temp
C
wind
direction
speed
KPH
gust
KPH
rain 1hr
cm
rain 24hr
cm
rain mn
cm
humidity
%
barometer
mb
20260510164701 22 350 6.4 11.3 0.00 0.00 0.00 54 957.1
20260510164158 21 217 3.2 9.7 0.00 0.00 0.00 51 956.9
20260510163653 20 75 0.0 3.2 0.00 0.00 0.00 56 956.9
20260510163149 21 218 3.2 3.2 0.00 0.00 0.00 54 956.9
20260510162643 20 322 4.8 6.4 0.00 0.00 0.00 55 957.1
20260510162140 21 209 6.4 11.3 0.00 0.00 0.00 53 956.9
20260510161636 22 250 4.8 6.4 0.00 0.00 0.00 53 956.9
20260510161133 22 229 1.6 6.4 0.00 0.00 0.00 52 957.0
20260510160630 21 194 1.6 6.4 0.00 0.00 0.00 52 956.9
20260510160130 21 354 3.2 14.5 0.00 0.00 0.00 55 957.1
20260510155626 21 210 4.8 14.5 0.00 0.00 0.00 55 957.1
20260510155122 21 232 4.8 11.3 0.00 0.00 0.00 53 956.9
20260510154618 21 264 1.6 3.2 0.00 0.00 0.00 54 956.9
20260510154113 21 358 3.2 4.8 0.00 0.00 0.00 53 956.9
20260510153609 21 233 6.4 11.3 0.00 0.00 0.00 52 957.1
20260510153106 21 207 4.8 4.8 0.00 0.00 0.00 56 957.0
20260510152603 20 228 3.2 6.4 0.00 0.00 0.00 57 956.9
20260510152059 20 218 6.4 9.7 0.00 0.00 0.00 57 956.9
20260510151556 20 236 12.9 16.1 0.00 0.00 0.00 56 956.9
20260510151054 20 208 1.6 9.7 0.00 0.00 0.00 56 957.0
20260510150553 21 290 1.6 11.3 0.00 0.00 0.00 56 957.2
20260510150049 20 160 0.0 3.2 0.00 0.00 0.00 58 957.1
20260510145546 20 257 3.2 3.2 0.00 0.00 0.00 58 957.1
20260510145043 20 199 3.2 6.4 0.00 0.00 0.00 59 957.1
20260510144539 19 240 0.0 11.3 0.00 0.00 0.00 58 956.9
20260510144036 19 238 1.6 3.2 0.00 0.00 0.00 59 957.1
20260510143531 19 177 3.2 9.7 0.00 0.00 0.00 61 956.8
20260510143028 19 245 1.6 4.8 0.00 0.00 0.00 62 957.0
20260510142524 19 186 3.2 6.4 0.00 0.00 0.00 60 957.0
20260510142021 18 196 1.6 4.8 0.00 0.00 0.00 65 956.8
20260510141518 18 243 0.0 3.2 0.00 0.00 0.00 62 956.8
20260510141016 18 262 0.0 4.8 0.00 0.00 0.00 64 956.7
20260510140512 17 212 0.0 4.8 0.00 0.00 0.00 65 956.9
20260510140011 17 263 1.6 3.2 0.00 0.00 0.00 66 956.9
20260510135507 17 212 3.2 6.4 0.00 0.00 0.00 68 957.1
20260510135004 17 216 0.0 6.4 0.00 0.00 0.00 68 956.9
20260510134501 17 214 0.0 6.4 0.00 0.00 0.00 70 956.9
20260510133958 17 243 1.6 4.8 0.00 0.00 0.00 71 957.0
20260510133453 16 221 1.6 4.8 0.00 0.00 0.00 70 956.9
20260510132949 16 254 4.8 4.8 0.00 0.00 0.00 72 957.0
20260510132447 16 212 3.2 4.8 0.00 0.00 0.00 73 956.9
20260510131943 16 206 3.2 4.8 0.00 0.00 0.00 74 956.9
20260510131441 16 211 3.2 3.2 0.00 0.00 0.00 75 956.8
20260510130938 15 242 3.2 3.2 0.00 0.00 0.00 77 957.2
20260510130435 15 235 1.6 3.2 0.00 0.00 0.00 79 956.9
20260510125932 15 220 0.0 4.8 0.00 0.00 0.00 78 957.1
20260510125427 14 219 1.6 1.6 0.00 0.00 0.00 82 957.0
20260510124925 13 253 0.0 4.8 0.00 0.00 0.00 84 957.0
20260510124421 13 219 0.0 0.0 0.00 0.00 0.00 89 957.0
20260510123918 12 177 0.0 0.0 0.00 0.00 0.00 95 956.9
20260510123413 12 192 0.0 0.0 0.00 0.00 0.00 99 956.9
20260510122910 11 153 0.0 0.0 0.00 0.00 0.00 99 957.0
20260510122359 11 103 0.0 0.0 0.00 0.00 0.00 99 957.0
20260510121855 10 103 0.0 0.0 0.00 0.00 0.00 99 957.0
20260510121354 9 103 0.0 0.0 0.00 0.00 0.00 99 956.8
20260510120850 9 103 0.0 0.0 0.00 0.00 0.00 99 956.8
20260510120348 8 103 0.0 0.0 0.00 0.00 0.00 99 956.7
20260510115843 8 103 0.0 0.0 0.00 0.00 0.00 99 956.4
20260510115340 8 103 0.0 0.0 0.00 0.00 0.00 99 956.6
20260510114836 8 103 0.0 0.0 0.00 0.00 0.00 99 956.6
20260510114334 7 103 0.0 0.0 0.00 0.00 0.00 99 956.5
20260510113833 7 103 0.0 0.0 0.00 0.00 0.00 99 956.4
20260510113330 7 103 0.0 0.0 0.00 0.00 0.00 99 956.4
20260510112827 7 103 0.0 0.0 0.00 0.00 0.00 99 956.5
20260510112324 7 103 0.0 0.0 0.00 0.00 0.00 99 956.7
20260510111820 7 103 0.0 0.0 0.00 0.00 0.00 99 956.2
20260510111317 7 103 0.0 0.0 0.00 0.00 0.00 99 956.2
20260510110816 6 103 0.0 0.0 0.00 0.00 0.00 99 956.4
20260510110314 6 103 0.0 0.0 0.00 0.00 0.00 99 956.2
20260510105809 6 103 0.0 0.0 0.00 0.00 0.00 99 956.2
20260510105306 6 103 0.0 0.0 0.00 0.00 0.00 99 956.0
20260510104801 6 103 0.0 0.0 0.00 0.00 0.00 99 955.9
20260510104259 6 103 0.0 0.0 0.00 0.00 0.00 99 955.7
20260510103754 6 103 0.0 0.0 0.00 0.00 0.00 99 955.6
20260510103252 6 103 0.0 0.0 0.00 0.00 0.00 99 955.8
20260510102752 6 103 0.0 0.0 0.00 0.00 0.00 99 955.5
20260510102248 6 103 0.0 0.0 0.00 0.00 0.00 99 955.4
20260510101745 6 103 0.0 0.0 0.00 0.00 0.00 99 955.3
20260510101244 6 103 0.0 0.0 0.00 0.00 0.00 99 955.4
20260510100739 6 103 0.0 0.0 0.00 0.00 0.00 99 955.2
20260510100238 6 103 0.0 0.0 0.00 0.00 0.00 99 955.4
20260510095732 6 103 0.0 0.0 0.00 0.00 0.00 99 955.2
20260510095228 6 103 0.0 0.0 0.00 0.00 0.00 99 955.2
20260510094727 6 103 0.0 0.0 0.00 0.00 0.00 99 955.0
20260510094222 6 103 0.0 0.0 0.00 0.00 0.00 99 955.2
20260510093718 6 103 0.0 0.0 0.00 0.00 0.00 99 955.0
20260510093216 6 103 0.0 0.0 0.00 0.00 0.00 99 955.1
20260510092712 6 103 0.0 0.0 0.00 0.00 0.00 99 955.1
20260510092208 6 103 0.0 0.0 0.00 0.00 0.00 99 955.1
20260510091704 6 103 0.0 0.0 0.00 0.00 0.00 99 954.9
20260510091200 6 103 0.0 0.0 0.00 0.00 0.00 99 954.9
20260510090657 6 103 0.0 0.0 0.00 0.00 0.00 99 954.8
20260510090154 6 103 0.0 0.0 0.00 0.00 0.00 99 954.7
20260510085649 7 103 0.0 0.0 0.00 0.00 0.00 99 954.8
20260510085144 7 103 0.0 0.0 0.00 0.00 0.00 99 954.7
20260510084641 7 103 0.0 0.0 0.00 0.00 0.00 99 954.8
20260510084137 7 103 0.0 0.0 0.00 0.00 0.00 99 954.6
20260510083634 7 103 0.0 0.0 0.00 0.00 0.00 99 954.7
20260510083131 6 103 0.0 0.0 0.00 0.00 0.00 99 954.4
20260510082627 6 103 0.0 0.0 0.00 0.00 0.00 99 954.6
20260510082123 6 103 0.0 0.0 0.00 0.00 0.00 99 954.4
20260510081624 6 103 0.0 0.0 0.00 0.00 0.00 99 954.5
20260510081120 6 103 0.0 0.0 0.00 0.00 0.00 99 954.4
20260510080619 7 103 0.0 0.0 0.00 0.00 0.00 99 954.6
20260510080116 7 103 0.0 0.0 0.00 0.00 0.00 99 954.7
20260510075613 7 103 0.0 0.0 0.00 0.00 0.00 99 954.6
20260510075110 6 103 0.0 0.0 0.00 0.00 0.00 99 954.6
20260510074607 6 103 0.0 0.0 0.00 0.00 0.00 99 954.7
20260510074103 6 103 0.0 0.0 0.00 0.00 0.00 99 954.5
20260510073559 6 103 0.0 0.0 0.00 0.00 0.00 99 954.7
20260510073056 6 103 0.0 0.0 0.00 0.00 0.00 99 954.5
20260510072553 6 103 0.0 0.0 0.00 0.00 0.00 99 954.6
20260510072048 6 103 0.0 0.0 0.00 0.00 0.00 99 954.6
20260510071545 6 103 0.0 0.0 0.00 0.00 0.00 99 954.5
20260510071043 7 103 0.0 0.0 0.00 0.00 0.00 99 954.5
20260510070539 7 103 0.0 0.0 0.00 0.00 0.00 99 954.3
20260510070037 7 103 0.0 0.0 0.00 0.00 0.00 99 954.4
20260510065533 7 103 0.0 0.0 0.00 0.00 0.00 99 954.4
20260510065029 7 103 0.0 0.0 0.00 0.00 0.00 99 954.4
20260510064526 6 103 0.0 0.0 0.00 0.00 0.00 99 954.2
20260510064022 7 103 0.0 0.0 0.00 0.00 0.00 99 954.3
20260510063519 7 103 0.0 0.0 0.00 0.00 0.00 99 954.1
20260510063016 6 103 0.0 0.0 0.00 0.00 0.00 99 954.2
20260510062512 6 103 0.0 0.0 0.00 0.00 0.00 99 954.2
20260510062007 6 103 0.0 0.0 0.00 0.00 0.00 99 954.2
20260510061505 6 104 0.0 0.0 0.00 0.00 0.00 99 954.4
20260510061001 6 104 0.0 0.0 0.00 0.00 0.00 99 954.2
20260510060458 7 103 0.0 0.0 0.00 0.00 0.00 98 954.1
20260510055954 7 103 0.0 0.0 0.00 0.00 0.00 99 954.3
20260510055449 7 103 0.0 0.0 0.00 0.00 0.00 98 954.5
20260510054948 6 103 0.0 0.0 0.00 0.00 0.00 98 954.4
20260510054443 6 103 0.0 0.0 0.00 0.00 0.00 98 954.3
20260510053938 6 103 0.0 0.0 0.00 0.00 0.00 98 954.1
20260510053434 6 103 0.0 0.0 0.00 0.00 0.00 98 954.3
20260510052930 6 103 0.0 0.0 0.00 0.00 0.00 98 954.3
20260510052426 7 103 0.0 0.0 0.00 0.00 0.00 98 954.3
20260510051922 7 103 0.0 0.0 0.00 0.00 0.00 97 954.1
20260510051419 7 103 0.0 0.0 0.00 0.00 0.00 97 954.4
20260510050915 7 103 0.0 0.0 0.00 0.00 0.00 97 954.5
20260510050412 7 103 0.0 0.0 0.00 0.00 0.00 97 954.5
20260510045909 7 103 0.0 0.0 0.00 0.00 0.00 97 954.3
20260510045406 7 103 0.0 0.0 0.00 0.00 0.00 97 954.2
20260510044903 7 103 0.0 0.0 0.00 0.00 0.00 97 954.3
20260510044400 7 103 0.0 0.0 0.00 0.00 0.00 96 954.2
20260510043856 7 103 0.0 0.0 0.00 0.00 0.00 96 954.4
20260510043352 7 103 0.0 0.0 0.00 0.00 0.00 96 954.3
20260510042851 7 103 0.0 0.0 0.00 0.00 0.00 96 954.5
20260510042346 7 103 0.0 0.0 0.00 0.00 0.00 96 954.5
20260510041843 7 103 0.0 0.0 0.00 0.00 0.00 96 954.4
20260510041340 8 103 0.0 0.0 0.00 0.00 0.00 96 954.0
20260510040838 8 103 0.0 0.0 0.00 0.00 0.00 96 954.3
20260510040334 8 103 0.0 0.0 0.00 0.00 0.00 95 954.3
20260510035829 7 103 0.0 0.0 0.00 0.00 0.00 95 954.2
20260510035326 8 103 0.0 0.0 0.00 0.00 0.00 94 954.3
20260510034821 8 103 0.0 0.0 0.00 0.00 0.00 94 954.3
20260510034319 8 103 0.0 0.0 0.00 0.00 0.00 94 954.3
20260510033815 8 103 0.0 0.0 0.00 0.00 0.00 94 954.3
20260510033313 8 122 0.0 0.0 0.00 0.00 0.00 94 954.2
20260510032809 8 122 0.0 0.0 0.00 0.00 0.00 93 954.1
20260510032306 8 122 0.0 0.0 0.00 0.00 0.00 94 954.0
20260510031801 8 122 0.0 0.0 0.00 0.00 0.00 93 954.0
20260510031258 8 122 0.0 0.0 0.00 0.00 0.00 92 953.8
20260510030757 8 122 0.0 0.0 0.00 0.00 0.00 92 954.2
20260510030254 8 122 0.0 0.0 0.00 0.00 0.00 91 954.1
20260510025751 8 122 0.0 0.0 0.00 0.00 0.00 91 954.1
20260510025249 8 122 0.0 0.0 0.00 0.00 0.00 91 954.3
20260510024745 8 122 0.0 0.0 0.00 0.00 0.00 90 954.1
20260510024242 8 122 0.0 0.0 0.00 0.00 0.00 89 954.1
20260510023738 9 122 0.0 0.0 0.00 0.00 0.00 89 954.2
20260510023235 9 122 0.0 0.0 0.00 0.00 0.00 88 954.1
20260510022731 9 122 0.0 0.0 0.00 0.00 0.00 88 954.1
20260510022231 9 122 0.0 0.0 0.00 0.00 0.00 87 953.9
20260510021726 10 122 0.0 0.0 0.00 0.00 0.00 86 953.8
20260510021224 10 123 0.0 0.0 0.00 0.00 0.00 86 953.7
20260510020719 10 123 0.0 0.0 0.00 0.00 0.00 85 953.6
20260510020219 10 123 0.0 0.0 0.00 0.00 0.00 84 953.6
20260510015715 10 123 0.0 0.0 0.00 0.00 0.00 83 953.5
20260510015212 10 123 0.0 0.0 0.00 0.00 0.00 83 953.4
20260510014707 11 123 0.0 0.0 0.00 0.00 0.00 82 953.3
20260510014206 10 123 0.0 0.0 0.00 0.00 0.00 81 953.1
20260510013706 11 123 0.0 0.0 0.00 0.00 0.00 82 953.0
20260510013202 11 123 0.0 0.0 0.00 0.00 0.00 79 953.0
20260510012701 11 123 0.0 0.0 0.00 0.00 0.00 78 952.9
20260510012157 11 123 0.0 0.0 0.00 0.00 0.00 79 952.7
20260510011652 11 123 0.0 1.6 0.00 0.00 0.00 78 952.7
20260510011148 11 123 0.0 0.0 0.00 0.00 0.00 78 952.7
20260510010644 12 133 1.6 3.2 0.00 0.00 0.00 77 952.8
20260510010142 12 193 0.0 0.0 0.00 0.00 0.00 76 952.7
20260510005637 12 193 0.0 0.0 0.00 0.00 0.00 73 952.7
20260510005135 12 193 0.0 0.0 0.00 0.00 0.00 71 952.5
20260510004633 13 193 0.0 0.0 0.00 0.00 0.00 70 952.7
20260510004131 13 256 0.0 0.0 0.00 0.00 0.00 70 952.6
20260510003627 13 257 0.0 0.0 0.00 0.00 0.00 69 952.6
20260510003123 13 254 0.0 0.0 0.00 0.00 0.00 68 952.3
20260510002623 13 258 0.0 0.0 0.00 0.00 0.00 67 952.2
20260510002120 14 252 0.0 0.0 0.00 0.00 0.00 66 952.3
20260510001617 14 252 0.0 0.0 0.00 0.00 0.00 66 952.1
20260510001116 15 244 0.0 0.0 0.00 0.00 0.00 63 952.1
20260510000616 15 308 0.0 3.2 0.00 0.00 0.00 62 952.2
20260510000113 15 320 3.2 3.2 0.00 0.00 0.00 63 952.1
20260509235610 15 265 0.0 0.0 0.00 0.00 0.00 61 952.0
20260509235107 16 258 0.0 0.0 0.00 0.00 0.00 58 952.1
20260509234603 16 258 1.6 4.8 0.00 0.00 0.00 57 951.7
20260509234101 16 304 0.0 0.0 0.00 0.00 0.00 56 952.0
20260509233558 16 318 0.0 1.6 0.00 0.00 0.00 55 952.0
20260509233055 16 265 0.0 0.0 0.00 0.00 0.00 55 951.7
20260509232551 17 236 0.0 3.2 0.00 0.00 0.00 55 951.6
20260509232048 17 230 0.0 1.6 0.00 0.00 0.00 55 951.7
20260509231545 17 197 0.0 0.0 0.00 0.00 0.00 54 951.4
20260509231043 17 265 0.0 1.6 0.00 0.00 0.00 54 951.4
20260509230539 17 238 3.2 6.4 0.00 0.00 0.00 52 951.6
20260509230037 17 263 0.0 3.2 0.00 0.00 0.00 51 951.5
20260509225531 18 211 0.0 1.6 0.00 0.00 0.00 51 951.5
20260509225027 17 244 0.0 3.2 0.00 0.00 0.00 51 951.7
20260509224523 17 164 0.0 3.2 0.00 0.00 0.00 51 951.6
20260509224020 18 206 3.2 6.4 0.00 0.00 0.00 51 951.7
20260509223517 18 267 0.0 1.6 0.00 0.00 0.00 48 951.9
20260509223015 18 334 1.6 4.8 0.00 0.00 0.00 49 951.6
20260509222511 18 352 3.2 4.8 0.00 0.00 0.00 50 951.7
20260509222006 18 333 0.0 3.2 0.00 0.00 0.00 52 951.7
20260509221502 17 354 0.0 3.2 0.00 0.00 0.00 53 952.0
20260509220958 18 279 3.2 4.8 0.00 0.00 0.00 49 951.9
20260509220455 17 289 1.6 4.8 0.00 0.00 0.00 51 951.9
20260509215950 17 1 0.0 4.8 0.00 0.00 0.00 51 951.7
20260509215446 18 274 0.0 3.2 0.00 0.00 0.00 53 951.7
20260509214944 18 222 1.6 9.7 0.00 0.00 0.00 48 951.9
20260509214441 18 344 1.6 4.8 0.00 0.00 0.00 51 951.9
20260509213938 17 268 0.0 3.2 0.00 0.00 0.00 48 951.9
20260509213433 18 269 3.2 6.4 0.00 0.00 0.00 46 951.7
20260509212931 18 315 0.0 4.8 0.00 0.00 0.00 48 951.6
20260509212429 19 0 1.6 3.2 0.00 0.00 0.00 44 951.6
20260509211924 19 351 3.2 4.8 0.00 0.00 0.00 46 951.5
20260509211420 18 205 1.6 3.2 0.00 0.00 0.00 50 951.7
20260509210917 18 254 3.2 9.7 0.00 0.00 0.00 48 951.5
20260509210414 18 334 3.2 4.8 0.00 0.00 0.00 48 951.5
20260509205910 19 263 1.6 3.2 0.00 0.00 0.00 45 951.5
20260509205409 18 276 0.0 1.6 0.00 0.00 0.00 45 951.2
20260509204906 19 316 3.2 3.2 0.00 0.00 0.00 47 951.3
20260509204402 19 290 1.6 3.2 0.00 0.00 0.00 45 951.3
20260509203859 18 222 0.0 6.4 0.00 0.00 0.00 46 951.1
20260509203355 18 241 3.2 4.8 0.00 0.00 0.00 46 951.2
20260509202852 18 204 1.6 4.8 0.00 0.00 0.00 47 951.1
20260509202348 17 235 1.6 1.6 0.00 0.00 0.00 48 951.0
20260509201843 17 237 1.6 4.8 0.00 0.00 0.00 45 951.2
20260509201339 17 254 3.2 4.8 0.00 0.00 0.00 49 950.9
20260509200836 18 221 1.6 9.7 0.00 0.00 0.00 50 950.9
20260509200331 18 200 1.6 4.8 0.00 0.00 0.00 50 951.1
20260509195828 18 268 1.6 3.2 0.00 0.00 0.00 48 951.1
20260509195328 19 247 0.0 3.2 0.00 0.00 0.00 48 951.1
20260509194827 19 209 0.0 3.2 0.00 0.00 0.00 48 951.0
20260509194324 18 215 6.4 6.4 0.00 0.00 0.00 53 950.9
20260509193821 17 354 3.2 3.2 0.00 0.00 0.00 52 951.0
20260509193321 18 324 1.6 4.8 0.00 0.00 0.00 52 950.9
20260509192817 18 337 1.6 6.4 0.00 0.00 0.00 50 951.0
20260509192313 18 244 0.0 0.0 0.00 0.00 0.00 47 951.3
20260509191808 18 276 4.8 11.3 0.00 0.00 0.00 48 951.0
20260509191305 18 196 3.2 4.8 0.00 0.00 0.00 49 951.0
20260509190800 18 244 1.6 3.2 0.00 0.00 0.00 50 951.1
20260509190258 18 298 4.8 6.4 0.00 0.00 0.00 47 951.0
20260509185755 18 158 3.2 9.7 0.00 0.00 0.00 48 951.1
20260509185251 18 223 1.6 4.8 0.00 0.00 0.00 51 951.0
20260509184749 18 235 1.6 6.4 0.00 0.00 0.00 49 950.9
20260509184246 19 188 3.2 4.8 0.00 0.00 0.00 53 950.9
20260509183742 18 272 1.6 4.8 0.00 0.00 0.00 50 951.0
20260509183238 19 222 1.6 11.3 0.00 0.00 0.00 50 951.2
20260509182733 20 205 4.8 6.4 0.00 0.00 0.00 51 950.9
20260509182231 20 339 3.2 4.8 0.00 0.00 0.00 49 951.0
20260509181728 19 26 3.2 12.9 0.00 0.00 0.00 49 951.0
20260509181226 18 324 1.6 4.8 0.00 0.00 0.00 55 950.9
20260509180723 18 280 1.6 6.4 0.00 0.00 0.00 54 951.2
20260509180219 18 192 6.4 9.7 0.00 0.00 0.00 58 950.9
20260509175715 18 215 1.6 3.2 0.00 0.00 0.00 55 951.1
20260509175212 18 249 6.4 6.4 0.00 0.00 0.00 53 951.1
20260509174708 19 226 3.2 6.4 0.00 0.00 0.00 52 951.1
20260509174203 18 329 3.2 6.4 0.00 0.00 0.00 54 950.9
20260509173659 18 247 6.4 9.7 0.00 0.00 0.00 53 951.0
20260509173155 18 247 9.7 11.3 0.00 0.00 0.00 54 951.2
20260509172651 19 235 4.8 4.8 0.00 0.00 0.00 52 951.3
20260509172148 18 291 1.6 4.8 0.00 0.00 0.00 51 951.2
20260509171643 18 232 0.0 3.2 0.00 0.00 0.00 52 951.4
20260509171140 17 331 1.6 4.8 0.00 0.00 0.00 55 951.4
20260509170637 18 174 1.6 9.7 0.00 0.00 0.00 53 951.4
20260509170133 18 293 0.0 11.3 0.00 0.00 0.00 58 951.4
20260509165631 18 218 1.6 3.2 0.00 0.00 0.00 57 951.5
20260509165127 17 110 1.6 4.8 0.00 0.00 0.00 57 951.5